Terminal Aerodrome Forecast
Issued by NWS Atlanta, GA

Home | Current Version | Previous Version | Text Only | Print | Product List | Glossary On
Versions: 1 2 3 4 5 6 7 8 9 10 11 12 13 14 15 16 17 18 19 20 21 22 23 24 25 26 27 28 29 30 31 32 33 34 35 36 37 38 39 40 41
000
FTUS42 KFFC 020332 AAB
TAFATL
TAF AMD
KATL 020332Z 0204/0306 33004KT P6SM FEW070 SCT250
     FM021200 04005KT P6SM FEW250
     FM021600 07008KT P6SM SCT040
     FM022200 03005KT P6SM FEW060
     FM030200 34004KT P6SM FEW250=

USA.gov is the U.S. government's official web portal to all federal, state and local government web resources and services.